Location: Blacksburg
(37.2290°N, 80.4140°W)
Time: 21:32:12
(UTC-04:00)

ISS - Visible Passes

Search period start: 26 July 2021 00:00
Search period end: 05 August 2021 00:00
Orbit: 419 x 421 km, 51.6° (Epoch: 26 July)

Date Brightness Start Highest point End Pass type
(mag) Time Alt. Az. Time Alt. Az. Time Alt. Az.
26 Jul -1.3 22:35:54 10° NNW 22:37:59 15° NNE 22:38:58 14° NE visible
27 Jul -0.3 00:11:49 10° NW 00:11:55 11° NW 00:11:55 11° NW visible
27 Jul -1.0 21:49:09 10° N 21:50:25 12° NNE 21:51:40 10° NE visible
27 Jul -1.4 23:24:34 10° NW 23:26:10 24° NNW 23:26:10 24° NNW visible
28 Jul -2.4 22:37:25 10° NNW 22:40:27 31° NNE 22:40:27 31° NNE visible
29 Jul -1.8 21:50:22 10° NNW 21:53:02 21° NNE 21:54:48 15° ENE visible
29 Jul -1.0 23:26:45 10° WNW 23:27:45 18° WNW 23:27:45 18° WNW visible
30 Jul -1.3 21:03:25 10° NNW 21:05:31 15° NNE 21:07:37 10° ENE visible
30 Jul -3.2 22:39:21 10° NW 22:42:08 58° NW 22:42:08 58° NW visible
31 Jul -3.3 21:52:05 10° NW 21:55:24 52° NE 21:56:35 33° E visible
01 Aug -2.5 21:04:56 10° NNW 21:08:00 32° NNE 21:11:04 10° E visible
01 Aug -1.8 22:41:55 10° WNW 22:44:03 23° WSW 22:44:03 23° WSW visible
02 Aug -3.0 21:54:16 10° WNW 21:57:30 44° SW 21:58:37 31° S visible
03 Aug -3.7 21:06:51 10° NW 21:10:13 85° SW 21:13:15 12° SE visible
04 Aug -1.2 21:57:36 10° W 21:59:22 14° SW 22:00:58 11° SSW visible
